This is the latest recevied weather packets stored in our database for station/object K9YK-13. If no packets are shown the sender has not sent any weather packets the latest 10 day(s).
| Time | Temp. | Humidity | Pressure | Rain* | Wind** | Luminosity | Snow |
|---|---|---|---|---|---|---|---|
| 1777662072 | 12.22° C | 67% | 0 hPa | 0 mm | - | - | - |
| 1777661772 | 10° C | 69% | 0 hPa | 0 mm | - | - | - |
| 1777661472 | 10° C | 73% | 0 hPa | 0 mm | - | - | - |
| 1777661172 | 9.44° C | 71% | 0 hPa | 0 mm | - | - | - |
| 1777660872 | 12.22° C | 71% | 0 hPa | 0 mm | - | - | - |
| 1777660572 | 11.11° C | 67% | 0 hPa | 0 mm | - | - | - |
| 1777660272 | 11.67° C | 73% | 0 hPa | 0 mm | - | - | - |
| 1777659972 | 13.33° C | 64% | 0 hPa | 0 mm | - | - | - |
| 1777659672 | 13.89° C | 59% | 0 hPa | 0 mm | - | - | - |
| 1777659372 | 14.44° C | 57% | 0 hPa | 0 mm | - | - | - |
| 1777659072 | 14.44° C | 58% | 0 hPa | 0 mm | - | - | - |
| 1777658772 | 14.44° C | 57% | 0 hPa | 0 mm | - | - | - |
| 1777658472 | 13.33° C | 59% | 0 hPa | 0 mm | - | - | - |
| 1777658172 | 13.33° C | 62% | 0 hPa | 0 mm | - | - | - |
| 1777657872 | 12.78° C | 59% | 0 hPa | 0 mm | - | - | - |
| 1777657572 | 12.78° C | 59% | 0 hPa | 0 mm | - | - | - |
| 1777657272 | 12.78° C | 64% | 0 hPa | 0 mm | - | - | - |
| 1777656972 | 11.67° C | 66% | 0 hPa | 0 mm | - | - | - |
| 1777656672 | 12.22° C | 66% | 0 hPa | 0 mm | - | - | - |
| 1777656372 | 12.22° C | 64% | 0 hPa | 0 mm | - | - | - |
| 1777656072 | 12.22° C | 64% | 0 hPa | 0 mm | - | - | - |
| 1777655772 | 11.67° C | 66% | 0 hPa | 0 mm | - | - | - |
| 1777655472 | 11.67° C | 66% | 0 hPa | 0 mm | - | - | - |
| 1777655172 | 13.33° C | 64% | 0 hPa | 0 mm | - | - | - |
| 1777654872 | 13.33° C | 64% | 0 hPa | 0 mm | - | - | - |
* Rain latest hour (hover to see other rain measurements)
** Current wind speed in m/s (hover to see current wind gust speed)